Andrews, TX

2:45 AM CDT on October 24, 2017 (GMT -0500)
Andrews

Weather History for KE11 - November, 2012

Change the Weather History Date:

Thursday, November 1, 2012

  Actual Average (KMAF) Record (KMAF)
Temperature  
Mean Temperature 62 °F -  
Max Temperature 80 °F 67 °F 90 °F (2016)
Min Temperature 45 °F 44 °F 29 °F (1991)
Degree Days  
Heating Degree Days 2    
Growing Degree Days 12 (Base 50)    
Moisture  
Dew Point 41 °F    
Average Humidity 48    
Maximum Humidity 86    
Minimum Humidity 20    
Precipitation  
Precipitation 0.00 in - - ()
Sea Level Pressure  
Sea Level Pressure 30.08 in    
Wind  
Wind Speed 6 mph ()    
Max Wind Speed 14 mph    
Max Gust Speed 17 mph    
Visibility 10.0 miles    
Events      
Averages and records for this station are not official NWS values.
T = Trace of Precipitation, MM = Missing Value Source: Averaged Metar Reports

Daily Weather History Graph

Daily Weather History Graph

Search for Another Location

Airport or City:

Trip Planner

Search our weather history database for the weather conditions in past years. The results will help you decide how hot, cold, wet, or windy it might be!

Date:

Astronomy

Nov. 01, 2012 Rise Set
Actual Time 8:07 AM CDT 6:59 PM CDT
Civil Twilight 7:42 AM CDT 7:24 PM CDT
Nautical Twilight 7:13 AM CDT 7:53 PM CDT
Astronomical Twilight 6:44 AM CDT 8:22 PM CDT
Moon 9:05 PM CDT (11/1) 10:34 AM CDT (11/1)
Length of Visible Light 11h 42m
Length of Day
10h 51m
Waning Gibbous, 93% of the Moon is Illuminated
Nov 1
Waning Gibbous
Nov 6
Last Quarter
Nov 13
New
Nov 20
First Quarter
Nov 28
Full

Hourly Weather History & Observations

Time (CDT) Temp. Windchill Dew Point Humidity Pressure Visibility Wind Dir Wind Speed Gust Speed Precip Events Conditions
12:15 AM 60.3 °F - 37.4 °F 43% 30.11 in 10.0 mi South 8.1 mph - N/A   Clear
12:35 AM 59.0 °F - 37.8 °F 45% 30.12 in 10.0 mi South 6.9 mph - N/A   Clear
12:55 AM 58.3 °F - 38.7 °F 48% 30.12 in 10.0 mi South 5.8 mph - N/A   Clear
1:15 AM 57.2 °F - 39.2 °F 51% 30.12 in 10.0 mi South 5.8 mph - N/A   Clear
1:35 AM 57.4 °F - 39.2 °F 51% 30.12 in 10.0 mi South 4.6 mph - N/A   Clear
1:55 AM 56.3 °F - 39.6 °F 53% 30.12 in 10.0 mi SSW 4.6 mph - N/A   Clear
2:15 AM 55.8 °F - 38.7 °F 53% 30.12 in 10.0 mi SW 4.6 mph - N/A   Clear
2:35 AM 55.4 °F - 39.4 °F 55% 30.12 in 10.0 mi SW 6.9 mph - N/A   Clear
2:55 AM 56.3 °F - 40.1 °F 55% 30.12 in 10.0 mi SW 5.8 mph - N/A   Clear
3:15 AM 56.7 °F - 41.2 °F 56% 30.12 in 10.0 mi SSW 5.8 mph - N/A   Clear
3:35 AM 55.4 °F - 40.6 °F 58% 30.12 in 10.0 mi SW 5.8 mph - N/A   Clear
3:55 AM 55.2 °F - 42.3 °F 62% 30.11 in 10.0 mi SW 3.5 mph - N/A   Clear
4:15 AM 53.6 °F - 42.4 °F 66% 30.10 in 10.0 mi Calm Calm - N/A   Clear
4:35 AM 53.2 °F - 42.1 °F 66% 30.10 in 10.0 mi Calm Calm - N/A   Clear
4:55 AM 52.7 °F - 42.3 °F 68% 30.10 in 10.0 mi Calm Calm - N/A   Clear
5:15 AM 52.0 °F - 42.3 °F 69% 30.10 in 10.0 mi WSW 3.5 mph - N/A   Clear
5:35 AM 51.4 °F - 43.2 °F 73% 30.09 in 10.0 mi SW 3.5 mph - N/A   Clear
5:55 AM 52.0 °F - 43.2 °F 72% 30.09 in 10.0 mi SW 5.8 mph - N/A   Clear
6:15 AM 53.1 °F - 43.7 °F 71% 30.09 in 10.0 mi SSW 6.9 mph - N/A   Clear
6:35 AM 53.6 °F - 44.4 °F 71% 30.09 in 10.0 mi SSW 6.9 mph - N/A   Clear
6:55 AM 54.1 °F - 45.0 °F 71% 30.09 in 10.0 mi SSW 6.9 mph - N/A   Clear
7:15 AM 53.6 °F - 45.7 °F 75% 30.10 in 10.0 mi SSW 4.6 mph - N/A   Clear
7:35 AM 53.1 °F - 45.5 °F 75% 30.11 in 10.0 mi Calm Calm - N/A   Clear
7:55 AM 47.8 °F - 43.9 °F 86% 30.12 in 10.0 mi Calm Calm - N/A   Clear
8:15 AM 45.1 °F 42.8 °F 40.6 °F 84% 30.12 in 10.0 mi NNW 4.6 mph - N/A   Clear
8:35 AM 46.4 °F - 40.3 °F 79% 30.13 in 10.0 mi Calm Calm - N/A   Clear
8:55 AM 50.9 °F - 41.4 °F 70% 30.14 in 10.0 mi Calm Calm - N/A   Clear
9:15 AM 51.6 °F - 43.0 °F 72% 30.14 in 10.0 mi Calm Calm - N/A   Clear
9:35 AM 55.9 °F - 45.9 °F 69% 30.14 in 10.0 mi Calm Calm - N/A   Clear
9:55 AM 61.5 °F - 50.0 °F 66% 30.14 in 10.0 mi SSW 8.1 mph - N/A   Clear
10:15 AM 64.0 °F - 50.4 °F 61% 30.14 in 10.0 mi SSW 9.2 mph - N/A   Clear
10:35 AM 66.0 °F - 49.1 °F 54% 30.14 in 10.0 mi SSW 10.4 mph - N/A   Clear
10:55 AM 68.2 °F - 45.5 °F 44% 30.14 in 10.0 mi SSW 11.5 mph - N/A   Clear
11:15 AM 69.6 °F - 46.8 °F 44% 30.14 in 10.0 mi South 9.2 mph - N/A   Clear
11:35 AM 71.1 °F - 44.1 °F 38% 30.14 in 10.0 mi South 10.4 mph 17.3 mph N/A   Clear
11:55 AM 72.5 °F - 44.6 °F 37% 30.13 in 10.0 mi SSW 13.8 mph - N/A   Clear
12:15 PM 73.8 °F - 44.8 °F 35% 30.13 in 10.0 mi SSW 11.5 mph 17.3 mph N/A   Clear
12:55 PM 74.8 °F - 46.0 °F 36% 30.11 in 10.0 mi South 11.5 mph 16.1 mph N/A   Clear
1:15 PM 76.5 °F - 42.3 °F 29% 30.10 in 10.0 mi South 12.7 mph - N/A   Clear
1:35 PM 76.5 °F - 41.2 °F 28% 30.09 in 10.0 mi South 8.1 mph - N/A   Clear
1:55 PM 78.1 °F - 40.8 °F 26% 30.08 in 10.0 mi SSW 8.1 mph - N/A   Clear
2:15 PM 78.3 °F - 39.9 °F 25% 30.07 in 10.0 mi SSW 9.2 mph - N/A   Clear
2:35 PM 79.0 °F - 36.0 °F 21% 30.06 in 10.0 mi South 8.1 mph - N/A   Clear
2:55 PM 79.0 °F - 38.8 °F 24% 30.04 in 10.0 mi South 9.2 mph - N/A   Clear
3:15 PM 79.5 °F - 36.3 °F 21% 30.03 in 10.0 mi SSW 9.2 mph - N/A   Clear
3:35 PM 80.1 °F - 35.8 °F 20% 30.03 in 10.0 mi SSW 9.2 mph - N/A   Clear
3:55 PM 79.9 °F - 35.6 °F 20% 30.02 in 10.0 mi South 8.1 mph 16.1 mph N/A   Clear
4:15 PM 79.9 °F - 35.8 °F 20% 30.02 in 10.0 mi South 5.8 mph - N/A   Clear
4:35 PM 79.9 °F - 37.0 °F 21% 30.02 in 10.0 mi South 8.1 mph - N/A   Clear
4:55 PM 80.1 °F - 37.2 °F 21% 30.01 in 10.0 mi South 10.4 mph - N/A   Clear
5:15 PM 79.9 °F - 36.1 °F 21% 30.01 in 10.0 mi South 6.9 mph - N/A   Clear
5:35 PM 79.3 °F - 36.0 °F 21% 30.01 in 10.0 mi SSW 8.1 mph - N/A   Clear
5:55 PM 78.8 °F - 36.5 °F 22% 30.01 in 10.0 mi SSW 6.9 mph - N/A   Clear
6:15 PM 77.4 °F - 35.1 °F 22% 30.01 in 10.0 mi South 6.9 mph - N/A   Clear
6:35 PM 75.7 °F - 36.9 °F 24% 30.01 in 10.0 mi South 6.9 mph - N/A   Clear
6:55 PM 72.3 °F - 37.0 °F 28% 30.01 in 10.0 mi South 6.9 mph - N/A   Clear
7:15 PM 69.1 °F - 37.2 °F 31% 30.01 in 10.0 mi South 6.9 mph - N/A   Clear
7:35 PM 66.7 °F - 38.1 °F 35% 30.01 in 10.0 mi South 6.9 mph - N/A   Clear
7:55 PM 65.7 °F - 38.5 °F 37% 30.02 in 10.0 mi South 5.8 mph - N/A   Clear
8:15 PM 64.4 °F - 38.8 °F 39% 30.02 in 10.0 mi South 5.8 mph - N/A   Clear
8:35 PM 63.7 °F - 39.0 °F 40% 30.03 in 10.0 mi South 6.9 mph - N/A   Clear
8:55 PM 63.1 °F - 39.6 °F 42% 30.02 in 10.0 mi South 6.9 mph - N/A   Clear
9:15 PM 62.1 °F - 40.1 °F 44% 30.03 in 10.0 mi South 5.8 mph - N/A   Clear
9:35 PM 62.4 °F - 40.1 °F 44% 30.03 in 10.0 mi South 6.9 mph - N/A   Clear
9:55 PM 61.9 °F - 40.1 °F 45% 30.03 in 10.0 mi South 6.9 mph - N/A   Clear
10:15 PM 61.9 °F - 41.0 °F 46% 30.03 in 10.0 mi South 10.4 mph - N/A   Clear
10:35 PM 63.0 °F - 43.0 °F 48% 30.03 in 10.0 mi South 8.1 mph - N/A   Clear
10:55 PM 63.5 °F - 45.5 °F 52% 30.03 in 10.0 mi South 10.4 mph - N/A   Clear
11:15 PM 63.5 °F - 48.0 °F 57% 30.03 in 10.0 mi South 9.2 mph - N/A   Clear
11:35 PM 62.4 °F - 48.0 °F 59% 30.03 in 10.0 mi South 10.4 mph - N/A   Clear
11:55 PM 60.8 °F - 47.3 °F 61% 30.03 in 10.0 mi SSW 9.2 mph - N/A   Clear